Brownwood, TX

5:12 AM CDT on April 25, 2017 (GMT -0500)
Brownwood Regional

Weather History for KBWD - October, 2012

Change the Weather History Date:

Thursday, October 18, 2012

  Actual Average (KABI) Record (KABI)
Temperature  
Mean Temperature 62 °F -  
Max Temperature 75 °F 73 °F 91 °F (1921)
Min Temperature 46 °F 51 °F 32 °F (1948)
Degree Days  
Heating Degree Days 2    
Growing Degree Days 12 (Base 50)    
Moisture  
Dew Point 31 °F    
Average Humidity 31    
Maximum Humidity 62    
Minimum Humidity 15    
Precipitation  
Precipitation 0.00 in - - ()
Sea Level Pressure  
Sea Level Pressure 29.97 in    
Wind  
Wind Speed 6 mph (NE)    
Max Wind Speed 16 mph    
Max Gust Speed 21 mph    
Visibility 10 miles    
Events      
Averages and records for this station are not official NWS values.
T = Trace of Precipitation, MM = Missing Value Source: NWS Daily Summary

Daily Weather History Graph

Daily Weather History Graph

Search for Another Location

Airport or City:

Trip Planner

Search our weather history database for the weather conditions in past years. The results will help you decide how hot, cold, wet, or windy it might be!

Date:

Astronomy

Oct. 18, 2012 Rise Set
Actual Time 7:41 AM CDT 6:59 PM CDT
Civil Twilight 7:16 AM CDT 7:24 PM CDT
Nautical Twilight 6:48 AM CDT 7:52 PM CDT
Astronomical Twilight 6:20 AM CDT 8:20 PM CDT
Moon 11:12 AM CDT (10/18) 9:48 PM CDT (10/18)
Length of Visible Light 12h 07m
Length of Day
11h 17m
Waxing Crescent, 14% of the Moon is Illuminated
Oct 18
Waxing Crescent
Oct 21
First Quarter
Oct 29
Full
Nov 6
Last Quarter
Nov 13
New

Hourly Weather History & Observations

Time (CDT) Temp. Windchill Dew Point Humidity Pressure Visibility Wind Dir Wind Speed Gust Speed Precip Events Conditions
12:15 AM 66.2 °F - 41.0 °F 40% 29.82 in 10.0 mi NE 4.6 mph - N/A   Partly Cloudy
12:35 AM 64.4 °F - 41.0 °F 42% 29.83 in 10.0 mi NNE 5.8 mph - N/A   Partly Cloudy
12:55 AM 64.4 °F - 42.8 °F 45% 29.84 in 10.0 mi NE 8.1 mph - N/A   Partly Cloudy
1:15 AM 64.4 °F - 42.8 °F 45% 29.84 in 10.0 mi NE 4.6 mph - N/A   Scattered Clouds
1:35 AM 64.4 °F - 41.0 °F 42% 29.85 in 10.0 mi NNE 6.9 mph - N/A   Scattered Clouds
1:55 AM 62.6 °F - 41.0 °F 45% 29.87 in 10.0 mi North 3.5 mph - N/A   Partly Cloudy
2:15 AM 62.6 °F - 41.0 °F 45% 29.87 in 10.0 mi Calm Calm - N/A   Clear
2:35 AM 60.8 °F - 41.0 °F 48% 29.88 in 10.0 mi NE 3.5 mph - N/A   Clear
2:55 AM 62.6 °F - 41.0 °F 45% 29.88 in 10.0 mi NE 4.6 mph - N/A   Clear
3:15 AM 62.6 °F - 41.0 °F 45% 29.88 in 10.0 mi NE 4.6 mph - N/A   Clear
3:35 AM 62.6 °F - 41.0 °F 45% 29.88 in 10.0 mi NE 4.6 mph - N/A   Clear
3:55 AM 62.6 °F - 39.2 °F 42% 29.89 in 10.0 mi NE 5.8 mph - N/A   Clear
4:15 AM 62.6 °F - 35.6 °F 37% 29.89 in 10.0 mi NNE 9.2 mph - N/A   Clear
4:35 AM 60.8 °F - 35.6 °F 39% 29.90 in 10.0 mi NE 8.1 mph - N/A   Clear
5:55 AM 57.2 °F - 32.0 °F 38% 29.92 in 10.0 mi NE 5.8 mph - N/A   Clear
6:15 AM 57.2 °F - 32.0 °F 38% 29.93 in 10.0 mi NE 4.6 mph - N/A   Partly Cloudy
6:35 AM 57.2 °F - 32.0 °F 38% 29.94 in 10.0 mi NNE 4.6 mph - N/A   Partly Cloudy
6:55 AM 57.2 °F - 32.0 °F 38% 29.94 in 10.0 mi NNE 3.5 mph - N/A   Partly Cloudy
7:15 AM 57.2 °F - 32.0 °F 38% 29.95 in 10.0 mi North 4.6 mph - N/A   Partly Cloudy
7:35 AM 57.2 °F - 32.0 °F 38% 29.96 in 10.0 mi NE 4.6 mph - N/A   Clear
7:55 AM 57.2 °F - 32.0 °F 38% 29.97 in 10.0 mi NE 4.6 mph - N/A   Clear
8:35 AM 57.2 °F - 32.0 °F 38% 29.99 in 10.0 mi Calm Calm - N/A   Clear
8:55 AM 59.0 °F - 32.0 °F 36% 30.00 in 10.0 mi ENE 4.6 mph - N/A   Clear
9:35 AM 62.6 °F - 30.2 °F 30% 30.03 in 10.0 mi ENE 6.9 mph - N/A   Clear
9:55 AM 64.4 °F - 32.0 °F 30% 30.04 in 10.0 mi ENE 5.8 mph - N/A   Clear
10:15 AM 64.4 °F - 30.2 °F 28% 30.04 in 10.0 mi NE 5.8 mph - N/A   Clear
10:35 AM 66.2 °F - 28.4 °F 24% 30.04 in 10.0 mi ENE 9.2 mph 16.1 mph N/A   Clear
11:15 AM 68.0 °F - 26.6 °F 21% 30.04 in 10.0 mi ENE 12.7 mph - N/A   Clear
11:35 AM 69.8 °F - 24.8 °F 18% 30.05 in 10.0 mi ENE 15.0 mph 19.6 mph N/A   Clear
11:55 AM 71.6 °F - 24.8 °F 17% 30.05 in 9.0 mi ENE 10.4 mph 17.3 mph N/A   Clear
12:15 PM 71.6 °F - 23.0 °F 16% 30.04 in 10.0 mi East 16.1 mph 19.6 mph N/A   Clear
12:35 PM 71.6 °F - 26.6 °F 19% 30.04 in 10.0 mi ENE 10.4 mph 20.7 mph N/A   Clear
12:55 PM 73.4 °F - 26.6 °F 18% 30.04 in 10.0 mi ENE 10.4 mph 16.1 mph N/A   Clear
1:15 PM 73.4 °F - 23.0 °F 15% 30.03 in 10.0 mi ENE 10.4 mph - N/A   Clear
1:35 PM 73.4 °F - 23.0 °F 15% 30.02 in 10.0 mi ENE 10.4 mph 16.1 mph N/A   Clear
1:55 PM 73.4 °F - 24.8 °F 16% 30.00 in 10.0 mi NE 6.9 mph - N/A   Clear
2:15 PM 73.4 °F - 24.8 °F 16% 29.99 in 10.0 mi East 8.1 mph - N/A   Clear
2:35 PM 73.4 °F - 24.8 °F 16% 29.99 in 10.0 mi ESE 5.8 mph - N/A   Clear
2:55 PM 75.2 °F - 26.6 °F 17% 29.98 in 10.0 mi ENE 9.2 mph - N/A   Clear
3:15 PM 75.2 °F - 24.8 °F 15% 29.98 in 10.0 mi Calm Calm - N/A   Clear
3:35 PM 75.2 °F - 24.8 °F 15% 29.98 in 10.0 mi NNE 9.2 mph - N/A   Clear
3:55 PM 75.2 °F - 24.8 °F 15% 29.97 in 10.0 mi WNW 3.5 mph - N/A   Clear
4:35 PM 75.2 °F - 24.8 °F 15% 29.97 in 10.0 mi North 6.9 mph - N/A   Clear
4:55 PM 75.2 °F - 26.6 °F 17% 29.97 in 10.0 mi NNW 5.8 mph - N/A   Clear
5:15 PM 75.2 °F - 26.6 °F 17% 29.97 in 10.0 mi NE 5.8 mph - N/A   Clear
5:35 PM 75.2 °F - 24.8 °F 15% 29.97 in 10.0 mi Calm Calm - N/A   Clear
5:55 PM 73.4 °F - 24.8 °F 16% 29.97 in 10.0 mi NE 5.8 mph - N/A   Clear
6:15 PM 73.4 °F - 26.6 °F 18% 29.97 in 10.0 mi NNE 5.8 mph - N/A   Clear
6:35 PM 71.6 °F - 28.4 °F 20% 29.97 in 10.0 mi NE 3.5 mph - N/A   Clear
6:55 PM 68.0 °F - 28.4 °F 23% 29.98 in 10.0 mi NNE 3.5 mph - N/A   Clear
7:15 PM 66.2 °F - 28.4 °F 24% 29.99 in 10.0 mi ENE 4.6 mph - N/A   Clear
7:35 PM 64.4 °F - 30.2 °F 28% 29.99 in 10.0 mi ENE 4.6 mph - N/A   Clear
7:55 PM 59.0 °F - 28.4 °F 31% 30.00 in 10.0 mi ENE 3.5 mph - N/A   Partly Cloudy
8:15 PM 59.0 °F - 30.2 °F 34% 30.00 in 10.0 mi NNE 3.5 mph - N/A   Partly Cloudy
8:35 PM 57.2 °F - 32.0 °F 38% 30.01 in 10.0 mi Calm Calm - N/A   Clear
8:55 PM 55.4 °F - 32.0 °F 41% 30.01 in 10.0 mi Calm Calm - N/A   Clear
9:15 PM 55.4 °F - 33.8 °F 44% 30.02 in 10.0 mi Calm Calm - N/A   Clear
9:35 PM 51.8 °F - 33.8 °F 50% 30.02 in 10.0 mi Calm Calm - N/A   Clear
9:55 PM 50.0 °F - 33.8 °F 54% 30.02 in 10.0 mi Calm Calm - N/A   Clear
10:55 PM 46.4 °F 45.2 °F 33.8 °F 62% 30.03 in 10.0 mi NW 3.5 mph - N/A   Partly Cloudy